Regional Weather Roundup
Issued by NWS Boston, MA

Current Version | Previous Version | Text Only | Print | Product List | Glossary Off
Versions: 1 2 3 4 5 6 7 8 9 10 11 12 13 14 15 16 17 18 19 20 21 22 23 24 25 26 27
000 ASUS41 KBOX 191110 RWRBOX REGIONAL WEATHER ROUNDUP NATIONAL WEATHER SERVICE BOSTON/NORTON MA 700 AM EDT TUE JUN 19 2018 NOTE: "FAIR" INDICATES FEW OR NO CLOUDS BELOW 12,000 FEET WITH NO SIGNIFICANT WEATHER AND/OR OBSTRUCTIONS TO VISIBILITY. MAZALL-191200- EASTERN MASSACHUSETTS CITY SKY/WX TMP DP RH WIND PRES REMARKS BOSTON PTSUNNY 74 63 68 NW15G24 29.69R BEVERLY PTSUNNY 72 64 76 N13 29.69R LAWRENCE PTSUNNY 74 60 61 NW9G21 29.72R BEDFORD CLOUDY 73 62 68 NW13G21 29.70R BLUE HILL N/A 69 65 86 NW12 29.71R NORWOOD CLOUDY 75 67 76 NW7 29.69R MARSHFIELD FAIR 73 70 88 NW13G18 29.68R PLYMOUTH PTSUNNY 72 69 90 NW7 29.68R TAUNTON CLOUDY 72 69 90 VRB3 29.68S NEW BEDFORD PTSUNNY 72 72 100 VRB5 29.67R $$ MAZALL-191200- CAPE COD AND THE ISLANDS CITY SKY/WX TMP DP RH WIND PRES REMARKS FALMOUTH FAIR 68 68 100 W7 29.68R FOG HYANNIS PTSUNNY 74 70 87 NW10G21 29.65R CHATHAM PTSUNNY 72 69 90 NW8 29.66S PROVINCETOWN CLOUDY 65 64 97 W9 29.68R NANTUCKET CLOUDY 63 61 93 W12 29.68S MARTHAS VNYRD CLOUDY 68 68 100 W6 29.67R $$ MAZALL-191200- CENTRAL AND WESTERN MASSACHUSETTS CITY SKY/WX TMP DP RH WIND PRES REMARKS WORCESTER PTSUNNY 68 64 87 NW12 29.75R FITCHBURG FAIR 70 68 93 N5 29.74R ORANGE FAIR 70 66 87 NW12 29.76R SPRINGFIELD PTSUNNY 71 66 84 N10 29.73R WESTFIELD CLOUDY 72 68 87 N9 29.74R NORTH ADAMS PTSUNNY 67 61 81 SW7 29.80R PITTSFIELD CLOUDY 68 58 70 N6 29.81R $$ RIZALL-191200- RHODE ISLAND CITY SKY/WX TMP DP RH WIND PRES REMARKS PROVIDENCE PTSUNNY 75 71 87 NW13 29.69R NEWPORT LGT RAIN 72 71 97 NW7 29.67R BLOCK ISLAND CLOUDY 66 66 100 W9 29.71R FOG SMITHFIELD CLOUDY 72 70 94 N6 29.72R WESTERLY CLOUDY 75 73 93 CALM 29.70R $$ CTZALL-191200- CONNECTICUT CITY SKY/WX TMP DP RH WIND PRES REMARKS BRADLEY INTL PTSUNNY 75 71 87 N7 29.74R HARTFORD PTSUNNY 77 70 79 N8 29.73R BRIDGEPORT FAIR 77 73 87 W7 29.73R DANBURY MOSUNNY 73 72 94 W6 29.77 GROTON PTSUNNY 76 71 85 NW9 29.69R NEW HAVEN FAIR 77 73 87 N7 29.73R CHESTER FAIR 77 72 83 NW8G16 29.73R MERIDEN FAIR 76 69 79 NW5 29.73R WILLIMANTIC PTSUNNY 75 71 87 N7 29.72R OXFORD FAIR 73 70 90 N6 29.77R $$ MEZ002-015-021-024-NHZ003-005-008-011-012-014-VTZ005-008-191200- NORTHERN NEW ENGLAND CITY SKY/WX TMP DP RH WIND PRES REMARKS PORTLAND ME PTSUNNY 68 58 70 NW12G23 29.68R BANGOR ME FAIR 66 60 81 NW9 29.62R CONCORD NH FAIR 68 60 75 NW12G23 29.74R MANCHESTER NH PTSUNNY 71 61 70 N16 29.71R NASHUA NH FAIR 71 64 78 NW14G20 29.73R PORTSMOUTH NH PTSUNNY 72 62 71 NW9 29.68 JAFFREY NH FAIR 68 62 81 CALM 29.77R KEENE NH FAIR 69 63 81 N8 29.77R BURLINGTON VT PTSUNNY 63 55 75 N15G21 29.85R MT. WASHINGTON FOG 43 43 100 W63G81 N/A VSB 0 WCI 28 $$ NYZ052-076-191200- EASTERN NEW YORK CITY SKY/WX TMP DP RH WIND PRES REMARKS ALBANY PTSUNNY 70 64 81 NW5 29.81R NEW YORK CITY PTSUNNY 80 70 71 NW14 29.75R $$ ANZALL-191200- MARINE OBSERVATIONS STATION/POSITION TIME TEMP WIND PRES VSBY WAVE AIR SEA DIR/SP/G HT/PER (UTC) (F) (DEG/KT/KT) (MB) (MI) (FT/S) BOSTON BUOY 1050 65 60 310/ 10/ 10 1004.8R 1/ 8 BUZZARDS BAY 1000 64 240/ 13/ 13 1005.0R NANTUCKET SOUND 1050 65 64 270/ 10/ 14 1004.4R 2/ 4 MASS BAY-STELLWA 1004 63 57 1002.3R 2/ 5 ISLE OF SHOALS 1100 68 330/ 11/ 13 1004.8R S OF BLOCK IS 1043 60 N/A 5/ 6 $$ ......................KEY......................... SKY/WX - SKY CONDITION/PRESENT WEATHER TMP - TEMPERATURE IN FAHRENHEIT DWPT - DEWPOINT IN FAHRENHEIT RH - RELATIVE HUMIDITY IN PERCENT WIND - DIRECTION AND SPEED IN MPH PRES - MEAN SEA LEVEL PRESSURE IN INCHES OF HG WCI - WIND CHILL INDEX VSB - VISIBILITY IN MILES HX - HEAT INDEX TC - TEMPERATURE IN CELSIUS VRB - VARIABLE WIND DIRECTION N/A - NOT AVAILABLE

USA.gov is the U.S. government's official web portal to all federal, state and local government web resources and services.